Location: M?digepalle
(16.1753°N, 80.3496°E)
Time: 09:10:56
(UTC+00:00)

ATLAS CENTAUR R/B - Pass Details

Date: 29 October 2020
Orbit: 478 x 667 km, 64.7° (Epoch: 22 November)

Event Time Altitude Azimuth Distance (km) Brightness Sun altitude
Exits shadow 22:16:34 19° 97° (E) 1,348 3.9 -33.6°
Drops below altitude 10° 22:18:44 10° 65° (ENE) 1,778 4.5 -33.0°
Sets 22:21:18 0° 47° (NE) 2,633 5.3 -32.4°
